Starlink 4458

operational
NORAD ID: 53668 Int'l Des: 2022-105 Owner: SPXS Country: US Constellation: starlink
LEOCIRCULARRETROGRADESSO

Starlink 4458について

説明を読み込み中...

リアルタイム位置

3D地球を読み込み中...

次回通過

高度履歴

Altitude vs Time

uPlot chart will show altitude changes over time

軌道要素

1 53668U 22105W 26035.94978816 .00000749 00000-0 56147-4 0 9993
2 53668 97.6024 278.8972 0002037 85.0585 275.0874 15.05650681188371
Epoch: Feb 4, 2026 • Age: 15 hours

現在のステータス

高度 560.3 km
速度 7.59 km/s
衛星直下点 70.04°N, 140.78°E
打ち上げ日 Aug 31, 2022
運用期間 3.4 years
タイプ internet

技術仕様

分類 Payload
質量 300.00 kg
乾燥質量 290.00 kg
総質量 300.00 kg
長さ 0.20 m
直径 2.80 m
スパン 9.00 m
形状 Box + pan
製造者 SPXS
バスタイプ Starlink
フェーズステータス In Orbit
所有者/国 SPXS/US

大規模コンステレーション

Loading constellations...